#timestamp,LO_Frequency,Hit,StdDev 
1652155215.5,286047002.4,N
1652155235.3,286047001.5,N
1652155255.1,286047003.0,N
1652155275.9,286047005.3,Y
1652155295.7,286047003.0,P
1652155315.6,286047004.0,P
1652155335.4,286047002.2,N
1652155355.2,286047002.8,N
1652155375.1,286047002.8,N
1652155376.0,286047002.8,Y
1652155395.8,286046999.4,P
1652155415.7,286047001.0,N
1652155435.5,286047002.7,N
1652155455.3,286046998.4,N
1652155475.2,286047000.9,N
1652155495.0,286047001.2,N
1652155495.9,286047001.2,N
1652155515.8,286047011.9,Y
1652155535.6,286046999.3,P
1652155555.4,286046998.4,N
1652155575.3,286046999.2,N
1652155595.1,286046998.7,N
1652155615.8,286046996.8,Y
1652155635.7,286046999.6,P
1652155655.5,286046997.2,P
1652155675.4,286046998.1,N
1652155695.2,286046998.7,N
1652155715.0,286046997.0,Y
1652155715.9,286046997.0,P
1652155735.8,286047000.5,N
1652155755.6,286047002.6,N
1652155775.4,286047000.2,N
1652155795.3,286046999.7,N
1652155815.1,286047000.5,N
1652155835.9,286046999.0,N
1652155855.7,286046998.9,N
1652155875.5,286047000.2,N
1652155895.4,286047001.2,N
1652155915.2,286046998.3,N
1652155935.0,286046999.7,N
1652155936.0,286046999.7,N
1652155955.8,286047002.3,N
1652155975.6,286047002.2,N
1652155995.7,286047001.7,N
1652156015.5,286047001.3,N
1652156035.4,286047002.6,N
1652156055.2,286047002.0,N
1652156075.1,286047002.8,N
1652156076.0,286047002.8,N
1652156095.8,286047000.5,N
1652156115.6,286047002.5,N
1652156135.5,286047000.7,N
1652156155.3,286047001.0,N
1652156175.1,286046998.3,N
1652156195.9,286047001.1,N
1652156215.7,286046998.2,N
1652156235.6,286047001.2,N
1652156255.4,286046998.6,N
1652156275.2,286046997.2,N
1652156295.1,286046997.8,N
1652156296.0,286046997.8,N
1652156315.8,286046999.3,N
1652156335.6,286046998.1,N
1652156355.5,286046999.4,N
1652156375.3,286046999.0,N
1652156395.2,286046998.4,N
1652156415.9,286047000.8,N
1652156435.7,286046999.8,N
1652156455.6,286047002.4,N
1652156475.4,286047004.2,N
1652156495.2,286047002.3,N
1652156515.1,286047002.6,N
1652156516.0,286047002.6,N
1652156535.8,286047002.6,N
1652156555.7,286047001.8,N
1652156575.5,286047002.0,N
1652156595.3,286047004.1,N
1652156615.2,286047003.5,N
1652156635.0,286047005.9,N
1652156635.9,286047005.9,N
1652156655.8,286047003.9,N
1652156675.6,286047004.2,N
1652156695.4,286047003.2,N
1652156715.3,286047003.1,N
1652156735.1,286047003.3,N
1652156755.9,286047003.8,N
1652156775.7,286047001.7,N
1652156795.5,286046999.7,N
1652156815.4,286047000.8,N
1652156835.2,286047001.1,N
1652156855.0,286046998.4,N
1652156856.0,286046998.4,N
1652156875.8,286046998.4,N
1652156895.6,286047000.5,N
1652156915.5,286047000.7,N
1652156935.3,286046999.8,N
1652156955.1,286047002.7,N
1652156975.9,286047000.6,N
1652156995.7,286047000.5,N
1652157015.6,286047002.7,N
1652157035.4,286047000.0,N
1652157055.2,286047000.9,N
1652157075.1,286046999.0,N
1652157076.0,286046999.0,N
1652157095.8,286046998.4,N
1652157115.7,286046998.3,N
1652157135.5,286046998.7,N
1652157155.3,286046999.0,N
1652157175.2,286047001.1,N
1652157195.0,286046998.1,N
1652157195.9,286046998.1,N
1652157215.8,286046998.8,N
1652157235.6,286046998.9,N
1652157255.4,286046996.9,N
1652157275.3,286046997.0,N
1652157295.1,286046997.5,N
1652157315.9,286046997.8,N
1652157335.7,286046997.5,N
1652157355.5,286046997.6,N
1652157375.4,286046996.1,N
1652157395.2,286046995.9,N
1652157415.0,286046995.8,N
1652157415.9,286046995.8,N
1652157435.8,286046993.4,Y
1652157455.6,286046997.9,P
1652157475.5,286046995.0,P
1652157495.3,286046997.9,N
1652157515.1,286046995.5,Y
1652157535.9,286046999.4,P
1652157555.7,286046999.6,N
1652157575.5,286046996.7,P
1652157595.4,286046999.1,N
1652157615.2,286046999.6,N
1652157635.1,286046998.7,N
1652157636.0,286046998.7,N
1652157655.8,286046997.5,N
1652157675.6,286046997.6,N
1652157695.5,286046997.5,N
1652157715.3,286046995.3,Y
1652157735.2,286046999.2,P
1652157755.9,286046995.2,P
1652157775.7,286046997.6,N
1652157795.6,286046998.0,N
1652157815.4,286046995.0,Y
1652157835.2,286046999.1,P
1652157855.1,286046998.9,N
1652157856.0,286046998.9,N
1652157875.8,286047000.9,N
1652157895.7,286046999.4,N
1652157915.5,286046999.0,N
1652157965.4,286046998.9,E
1652157975.3,286046998.7,N
1652157995.1,286046998.9,P
1652158015.9,286046998.2,P
1652158035.7,286046998.8,Y
1652158055.6,286046998.2,P
1652158075.4,286046998.3,P
1652158095.2,286046998.5,P
1652158115.1,286047000.8,Y
1652158116.0,286047000.8,P
1652158135.8,286047002.0,N
1652158155.6,286047001.5,N
1652158175.5,286047002.6,N
1652158195.3,286046999.8,N
1652158215.2,286047000.0,N
1652158235.9,286046998.2,N
1652158255.7,286046998.2,N
1652158275.6,286046998.9,N
1652158295.4,286047000.3,N
1652158315.2,286047000.3,N
1652158335.1,286047000.1,N
1652158336.0,286047000.1,N
1652158355.8,286047000.6,N
1652158375.7,286046999.8,N
1652158395.5,286047000.3,N
1652158415.3,286047002.4,N
1652158435.2,286046999.9,N
1652158455.0,286046999.9,N
1652158455.9,286046999.9,N
1652158475.8,286047000.6,N
1652158495.6,286046999.8,N
1652158515.4,286047000.4,N
1652158535.3,286047000.6,N
1652158555.1,286047000.0,N
1652158575.8,286047000.4,N
1652158595.7,286046998.5,N
1652158615.5,286047000.6,N
1652158635.4,286047000.9,N
1652158655.2,286047000.5,N
1652158675.0,286047000.8,N
1652158675.9,286047000.8,N
1652158695.8,286047000.8,N
1652158715.6,286047000.4,N
1652158735.5,286047000.2,N
1652158755.3,286046998.5,N
1652158775.1,286047001.2,N
1652158795.9,286047000.7,N
